EHI
6 3 1 0 0 0 0 0 0 0 0 0 0 0 0 0 0 0 0 0 1 2 2 3 3 3 3 3 3 3 3 3 3 3 3 3 3 3 3 3 3 3 3 3 3 3 3 4 5
3 2 1 0 0 0 0 0 0 0 0 0 0 0 0 0 0 0 0 1 2 2 2 3 3 3 3 3 3 3 3 4 4 3 3 3 3 3 3 3 3 3 3 3 3 3 3 3 4
1 1 0 0 0 0 0 0 0 0 0 0 0 0 0 0 0 0 1 2 3 2 1 2 3 3 3 3 3 3 4 4 4 4 3 3 3 3 3 3 3 3 3 3 3 3 3 3 3
0 0 0 0 0 0 0 0 0 0 0 0 0 0 0 0 0 0 1 2 3 2 1 1 2 3 3 3 3 3 3 4 4 3 3 3 3 3 3 3 3 3 3 3 3 3 3 3 3
0 0 0 0 0 0 0 0 0 0 0 0 0 0 0 0 0 0 0 1 2 1 0 1 2 2 1 2 2 2 2 2 2 3 3 3 3 3 3 3 3 3 3 3 3 3 3 3 3
0 0 0 0 0 0 0 0 0 0 0 0 0 0 0 0 0 0 0 0 0 0 1 2 3 2 1 1 1 1 1 1 1 1 2 2 2 2 3 3 3 3 3 3 3 3 3 3 3
0 0 0 0 0 0 0 0 0 0 0 0 0 0 0 0 0 0 0 0 0 0 1 2 3 3 3 2 2 1 1 1 0 0 1 1 1 1 1 2 2 2 2 2 2 2 2 2 2
0 0 0 0 0 0 0 0 0 0 0 0 0 0 0 0 0 0 0 0 0 0 1 2 2 2 2 2 2 2 2 1 0 0 0 0 0 0 0 1 1 1 1 1 1 1 1 1 1
0 0 0 0 0 0 0 0 0 0 0 0 0 0 0 0 0 0 0 0 0 0 0 1 1 1 1 1 1 1 1 1 0 0 0 0 0 0 0 0 0 0 0 0 0 0 0 0 0
0 0 0 0 0 0 0 0 0 0 0 0 0 0 1 1 1 0 0 0 0 0 0 0 0 0 0 0 0 0 0 0 0 0 0 0 0 0 0 0 0 0 0 0 0 0 0 0 0
0 0 0 0 0 0 0 0 0 0 0 0 0 1 1 2 1 0 0 0 0 0 0 0 0 0 0 0 0 0 0 0 0 0 0 0 0 0 0 0 0 0 0 0 0 0 0 0 0
0 0 0 0 0 0 0 0 0 0 0 0 1 2 3 2 1 0 0 0 0 0 0 0 0 0 0 0 0 0 0 0 0 0 0 0 0 0 0 0 0 0 0 0 0 0 0 0 0
0 0 0 0 0 0 0 0 0 0 0 0 1 2 3 3 2 1 0 0 0 0 0 0 0 1 1 1 0 0 0 0 0 0 0 0 0 0 0 0 0 0 0 0 0 0 0 0 0
0 0 0 0 0 0 0 0 0 0 0 0 1 2 3 3 2 1 0 0 0 0 0 0 0 1 2 2 1 0 0 0 0 0 0 0 0 0 0 0 0 0 0 0 0 0 0 0 0
0 0 0 0 0 0 0 0 0 0 0 0 0 1 2 3 2 1 0 0 0 0 0 0 0 1 2 3 2 1 0 0 0 0 0 0 0 0 0 0 0 0 0 0 0 0 0 0 0
0 0 0 0 0 0 0 0 0 0 0 0 0 0 1 2 2 1 0 0 0 0 0 0 0 0 1 2 2 1 0 0 0 0 0 0 0 0 0 0 0 0 0 0 0 0 0 0 0
0 0 0 0 0 0 0 0 0 0 0 0 0 0 0 1 1 0 0 0 0 0 0 0 0 0 0 1 2 2 0 0 0 0 0 0 0 0 0 0 0 0 0 0 0 0 0 0 0
0 0 0 0 0 0 0 0 0 0 0 0 0 0 0 0 0 0 0 0 0 0 0 0 0 0 0 1 1 1 0 0 0 0 0 0 0 0 0 0 0 0 0 0 0 0 0 0 0
0 0 0 0 0 0 0 0 0 0 0 0 0 0 0 0 0 0 0 0 0 0 0 0 0 0 0 0 0 0 0 0 0 0 0 0 0 0 0 0 0 0 0 0 0 0 0 0 0
0 0 0 0 0 0 0 0 0 0 0 0 0 0 0 0 0 0 0 0 0 0 0 0 0 0 0 0 0 0 0 0 0 0 0 0 0 0 0 0 0 0 0 0 0 0 0 0 0
0 0 0 0 0 0 0 0 0 0 0 0 0 0 0 0 0 0 0 0 0 0 0 0 0 0 0 0 0 0 0 0 0 0 0 0 0 0 0 0 0 0 0 0 0 0 0 0 0
0 0 0 0 0 0 0 0 0 0 0 0 0 0 0 0 0 0 0 0 0 0 0 0 0 0 0 0 0 0 0 0 0 0 0 0 0 0 0 0 0 0 0 0 0 0 0 0 0
0 0 0 0 0 0 0 0 0 0 0 0 0 0 0 0 0 0 0 0 0 0 0 0 0 0 0 0 0 0 0 0 0 0 0 0 0 0 0 0 0 0 0 0 0 0 0 0 0
0 0 0 0 0 0 0 0 0 0 0 0 0 0 0 0 0 0 0 0 0 0 0 0 0 0 0 0 0 0 0 0 0 0 0 0 0 0 0 0 0 0 0 0 0 0 0 0 0
0 0 0 0 0 0 0 0 0 0 0 0 0 0 0 0 0 0 0 0 0 0 0 0 0 0 0 0 0 0 0 0 0 0 0 0 0 0 0 0 0 0 0 0 0 0 0 0 0
0 0 0 0 0 0 0 0 0 0 0 0 0 0 0 0 0 0 0 0 0 0 0 0 0 0 0 0 0 0 0 0 0 0 0 0 0 0 0 0 0 0 0 0 0 0 0 0 0
0 0 0 0 0 0 0 0 0 0 0 0 0 0 0 0 0 0 0 0 0 0 0 0 0 0 0 0 0 0 0 0 0 0 0 0 0 0 0 0 0 0 0 0 0 0 0 0 0
0 0 0 0 0 0 0 0 0 0 0 0 0 0 0 0 0 0 0 0 0 0 0 0 0 0 0 0 0 0 0 0 0 0 0 0 0 0 0 0 0 0 0 0 0 0 0 0 0
0 0 0 0 0 0 0 0 0 0 0 0 0 0 0 0 0 0 0 0 0 0 0 0 0 0 0 0 0 0 0 0 0 0 0 0 0 0 0 0 0 0 0 0 0 0 0 0 0
0 0 0 0 0 0 0 0 0 0 0 0 0 0 0 0 0 0 0 0 0 0 0 0 0 0 0 0 0 0 0 0 0 0 0 0 0 0 0 0 0 0 0 0 0 0 0 0 0
Wind_Speed
2 3 3 4 7 6 3 2 0 1 2 2 4 5 5 4 2 2 1 1 1 1 1 2 4 5 6 7 8 8 9 9 9 9 9 9 8 8 9 9 9 9 9 10 10 10 10 10 10
1 2 4 6 6 4 2 2 1 1 2 3 4 5 5 4 2 2 1 1 1 2 2 2 4 6 7 8 8 8 9 9 9 9 9 9 8 8 9 9 9 10 10 10 10 10 10 10 9
2 4 5 5 5 3 2 0 2 2 3 2 3 4 3 2 1 1 1 2 2 2 2 2 5 6 7 8 8 8 9 9 8 9 9 8 8 8 9 9 9 9 10 10 10 10 9 9 9
3 5 6 6 4 0 2 2 2 3 3 4 3 4 3 2 1 2 3 4 3 2 2 2 5 6 6 7 7 7 8 8 8 9 9 8 8 8 8 9 9 9 9 9 9 9 10 9 9
5 5 6 4 2 2 0 1 2 3 3 3 3 4 2 4 3 4 5 4 3 2 2 2 5 6 6 6 6 6 7 7 7 8 8 8 8 8 8 8 9 9 9 9 9 9 9 10 9
5 5 6 2 2 2 1 1 3 4 3 2 3 3 1 2 3 3 4 4 3 3 2 3 3 4 5 5 5 5 6 6 7 7 7 7 8 8 8 8 8 8 8 8 9 9 10 10 9
5 5 4 3 1 1 0 2 3 3 3 1 3 4 1 1 1 3 4 4 3 3 3 3 2 3 3 4 4 4 5 6 6 6 7 7 7 7 8 8 8 8 8 8 8 9 9 9 9
5 6 4 2 2 0 1 2 2 3 2 2 3 4 2 2 2 4 4 4 3 3 3 3 3 3 3 3 3 4 4 5 5 5 6 6 6 7 7 7 8 8 8 8 8 9 10 10 10
4 6 2 3 4 2 2 2 2 2 4 2 2 2 2 4 5 5 4 3 3 2 2 2 2 2 2 2 3 3 4 4 5 4 5 6 4 4 5 6 7 8 8 8 8 9 10 10 10
5 4 3 3 4 4 3 3 3 4 4 2 3 3 4 6 6 5 3 2 1 0 1 1 1 1 2 2 2 2 2 3 3 3 3 3 3 3 4 7 8 7 8 8 8 9 9 7 4
3 3 2 1 3 4 3 3 3 6 2 3 4 4 4 5 4 3 2 2 2 1 1 0 0 1 1 1 1 1 1 2 2 3 2 2 2 3 3 3 4 4 5 4 6 6 4 4 3
2 1 2 2 3 3 4 4 4 2 2 2 4 6 5 5 3 2 2 1 1 1 1 0 0 0 1 1 1 1 1 1 1 1 2 2 2 2 2 2 2 2 2 3 3 3 4 4 4
2 1 1 2 4 4 5 4 3 1 2 5 7 7 5 4 2 1 1 0 1 1 1 1 1 0 0 1 1 1 1 1 1 1 1 2 1 1 2 2 2 2 2 2 2 3 3 3 3
1 2 2 2 4 3 5 3 3 0 3 6 7 5 3 3 2 1 1 1 0 1 2 1 1 1 1 1 1 1 1 1 1 1 1 2 2 1 1 2 2 2 2 2 2 2 2 2 2
2 4 4 2 2 2 5 3 1 1 5 5 4 3 3 1 1 1 1 1 1 1 1 1 1 1 2 1 1 1 1 1 1 1 1 2 2 2 2 2 1 1 1 2 2 3 2 3 3
4 4 1 2 1 1 4 2 3 3 6 4 3 2 2 1 1 1 1 1 0 0 1 1 1 1 1 1 1 1 1 1 1 1 1 1 2 2 2 2 1 1 1 2 2 2 2 2 2
3 1 1 2 1 2 3 3 2 3 6 4 3 2 2 1 1 2 1 0 0 1 1 1 2 2 1 2 2 2 2 2 1 1 1 1 1 2 2 1 1 1 2 1 1 2 2 2 2
2 1 1 2 1 3 3 4 2 3 6 5 4 3 2 2 3 2 1 1 1 1 2 2 2 2 2 2 3 2 3 2 2 2 2 2 1 2 2 1 1 2 2 2 2 2 2 2 1
3 3 2 3 1 3 4 4 4 3 4 5 4 4 4 4 2 1 1 2 2 3 3 3 3 2 2 2 2 2 1 1 2 2 2 2 2 2 2 1 2 2 2 2 2 2 3 2 1
3 2 2 2 0 3 2 4 4 3 5 6 7 6 6 3 0 0 1 2 2 2 2 3 2 2 2 1 1 1 1 1 1 1 2 3 2 2 3 2 2 2 2 2 2 2 2 1 1
2 4 4 3 1 2 1 4 3 2 2 3 4 4 4 5 4 2 1 1 2 2 2 2 2 2 2 2 2 3 2 2 2 2 2 2 2 2 3 2 2 2 2 2 1 2 2 1 1
3 4 4 3 2 1 1 3 6 2 2 3 4 4 5 4 3 3 3 2 2 1 2 2 2 3 3 3 3 3 2 1 0 0 1 2 2 2 2 2 2 2 1 1 1 1 1 2 1
4 1 3 2 3 1 0 2 7 1 3 5 5 5 5 4 5 4 4 3 2 2 2 2 3 3 3 3 3 3 2 1 1 2 2 2 2 3 2 2 2 1 1 1 1 1 1 1 2
3 6 6 5 4 1 3 4 6 4 6 4 4 4 4 4 4 4 3 3 3 3 3 3 3 3 3 3 3 3 3 2 2 2 2 2 2 2 2 1 1 1 1 1 1 1 2 1 1
4 6 4 4 3 4 2 2 7 5 4 5 5 5 4 4 5 4 4 4 3 3 2 2 3 2 2 3 3 2 2 2 2 1 1 1 1 1 1 1 1 0 0 1 1 2 1 1 2
2 6 6 4 4 4 1 4 6 3 3 1 2 3 4 4 4 5 5 4 4 3 3 3 3 2 2 2 2 2 2 1 1 1 1 0 0 1 1 0 0 0 0 1 1 1 1 1 1
3 2 4 6 2 1 4 5 6 2 3 2 2 3 3 4 4 4 4 4 3 3 3 3 3 2 1 1 1 2 2 1 1 1 1 0 1 1 1 1 0 0 0 1 1 1 1 1 1
3 6 4 4 3 2 4 4 4 3 3 1 1 2 3 3 3 3 3 3 3 3 2 2 2 2 1 1 1 1 0 0 1 1 1 1 1 1 1 1 1 0 0 0 1 0 0 1 1
2 3 4 4 4 5 3 6 4 5 4 4 4 4 4 5 5 4 3 3 3 2 2 2 2 2 1 1 1 1 1 1 1 0 1 1 1 1 0 1 1 0 0 0 1 1 1 1 1
2 4 6 4 3 4 3 7 4 3 3 4 3 3 3 4 4 3 3 3 3 3 3 2 2 2 2 1 1 0 0 1 1 1 1 1 1 1 1 1 1 1 1 1 1 1 1 1 2
Wind_Direction
50 80 76 56 54 52 52 356 340 31 54 40 54 75 89 82 90 119 292 70 101 84 36 76 78 78 77 77 81 81 80 78 73 69 71 72 72 71 73 77 78 77 77 80 79 80 79 83 89
87 88 56 58 76 69 13 343 40 50 129 125 68 68 71 59 62 99 31 355 102 100 60 78 84 82 81 80 79 80 80 77 74 70 71 71 72 73 74 76 76 75 75 76 79 81 81 81 84
86 57 71 66 81 124 138 313 130 70 74 75 70 56 72 63 69 130 196 133 88 66 48 78 92 90 86 83 78 78 79 77 75 74 73 72 73 74 75 78 77 74 73 74 76 77 79 82 83
74 47 54 66 71 125 169 194 154 106 52 48 86 66 54 18 137 154 128 122 97 63 42 60 92 91 88 86 81 79 79 78 77 76 74 73 72 71 73 78 79 76 73 74 76 76 75 79 80
61 71 61 57 46 7 360 176 130 97 74 46 79 87 41 4 57 99 120 124 114 83 43 38 88 88 87 87 83 82 80 78 77 77 75 74 72 71 70 75 78 77 75 75 77 76 75 77 78
59 67 80 81 36 13 7 69 100 88 89 81 89 100 63 11 76 113 123 117 105 89 58 38 70 79 80 83 82 82 84 83 81 80 76 75 73 71 68 70 75 77 77 75 75 75 74 75 76
95 86 103 123 101 44 48 80 99 109 97 117 123 104 57 15 110 119 110 95 81 73 59 36 27 37 52 62 70 76 84 88 85 83 77 74 71 68 66 66 71 75 75 73 74 75 74 74 73
113 97 90 113 132 182 186 110 114 117 120 109 111 128 189 214 130 101 86 76 69 58 49 32 26 30 25 20 41 63 76 88 87 79 74 66 59 57 57 59 63 68 71 72 74 74 69 69 67
83 80 130 184 171 190 159 113 87 90 96 73 76 141 172 126 114 99 77 53 51 49 29 25 22 27 22 11 27 40 60 65 65 56 58 55 38 35 37 47 61 62 65 69 70 72 66 64 62
79 112 201 196 175 166 144 122 129 90 76 56 47 52 86 107 120 124 121 121 106 9 356 23 20 22 28 25 34 30 40 47 51 46 42 45 43 34 40 38 49 55 58 60 63 62 57 54 46
104 152 188 153 153 138 127 103 92 117 117 192 167 142 116 109 114 134 156 166 196 221 248 348 17 16 41 33 38 35 37 45 49 50 44 47 46 37 36 34 29 34 44 44 48 47 42 44 45
105 126 155 159 132 127 131 117 96 113 203 176 145 130 119 120 133 162 188 218 228 209 232 290 102 47 41 46 41 45 44 44 47 47 56 64 56 49 42 42 32 35 39 47 45 46 41 43 43
90 89 71 94 98 106 102 99 118 51 68 93 100 105 121 137 149 166 143 97 63 307 276 249 160 134 86 61 37 57 42 44 49 48 55 85 88 75 61 50 40 38 44 52 49 50 46 42 38
111 83 64 72 91 87 101 77 84 42 96 97 105 115 123 133 145 85 20 347 303 282 283 275 204 169 142 126 90 73 59 53 63 60 57 89 103 97 79 61 49 43 47 60 68 64 57 45 45
81 76 40 38 81 101 100 41 299 166 114 109 116 125 122 120 122 179 227 238 245 262 280 291 223 159 141 147 135 94 75 83 72 62 63 78 99 110 101 82 60 40 49 69 72 62 58 58 52
55 65 35 302 114 105 117 235 265 144 131 137 143 141 137 162 203 241 251 240 247 357 8 350 62 104 126 130 108 87 74 80 66 53 65 73 85 100 100 91 76 67 67 73 83 75 65 56 52
38 85 244 295 160 125 139 224 256 149 145 162 175 182 184 237 299 279 277 279 76 107 88 48 61 81 103 107 88 81 66 60 52 51 56 61 75 93 102 101 87 89 81 73 89 72 86 83 65
209 200 235 244 220 129 161 227 234 173 166 184 191 197 201 221 248 263 300 16 66 79 81 70 62 68 84 83 75 64 54 40 40 45 42 50 67 84 93 95 81 91 89 69 67 75 67 81 76
161 164 225 260 219 149 196 234 248 195 180 192 201 207 214 231 261 6 38 62 68 63 71 68 66 56 71 71 80 78 58 30 32 40 40 46 62 88 95 88 79 85 98 104 97 88 77 55 54
152 162 227 290 235 167 204 258 262 198 199 202 203 209 215 222 235 53 62 65 75 79 72 69 68 63 62 63 85 109 99 69 53 29 40 42 56 71 88 88 93 95 99 91 87 93 87 56 51
187 187 203 212 34 64 87 314 288 266 201 201 210 213 214 206 199 189 144 105 89 86 89 90 72 68 55 56 68 66 60 44 31 19 22 20 44 63 74 87 97 91 105 123 114 112 118 125 26
236 219 188 166 120 268 148 278 285 265 249 227 226 221 219 212 194 181 164 143 134 117 87 80 80 71 60 68 84 92 95 99 119 29 33 27 41 56 67 82 93 99 95 112 132 102 114 134 146
217 137 126 130 141 77 8 195 284 302 257 250 233 223 220 200 182 177 175 167 139 107 93 81 78 68 62 66 82 91 77 69 38 45 52 39 29 38 49 68 83 96 103 118 107 86 90 122 147
126 73 60 50 71 292 237 183 274 244 232 246 228 217 207 184 168 162 144 122 102 88 86 85 85 65 59 69 71 82 85 77 69 46 41 32 24 23 29 60 65 83 102 123 143 134 121 129 129
83 88 38 0 7 255 256 197 250 258 250 226 217 210 193 171 160 156 145 134 132 127 121 111 108 82 68 75 70 73 81 91 90 75 59 48 34 8 348 38 50 42 107 133 123 124 131 141 143
156 137 156 196 225 278 301 236 258 285 296 240 185 175 160 160 167 168 166 159 156 148 135 126 124 103 92 90 78 71 72 72 62 61 70 61 281 279 294 55 85 35 75 108 120 124 148 141 158
129 157 161 134 152 266 283 289 303 356 15 51 97 133 170 180 177 171 163 160 157 152 149 149 142 121 112 109 92 66 57 55 49 35 51 17 329 327 3 358 8 348 53 100 112 119 157 156 179
134 144 105 119 155 251 288 280 262 280 281 279 198 197 204 191 180 172 171 170 161 158 145 134 131 141 131 117 115 89 62 51 42 62 28 357 334 345 354 344 325 288 345 95 114 129 176 139 194
107 108 111 119 149 162 246 270 233 222 222 220 224 216 204 198 189 185 180 169 153 132 134 138 136 125 117 120 103 66 341 337 43 34 315 311 329 344 342 304 292 293 276 208 146 196 185 167 219
184 171 147 154 205 174 182 265 279 242 224 206 215 213 199 192 185 177 167 156 152 154 157 158 167 168 177 163 135 129 338 9 32 333 317 339 335 312 292 298 288 264 267 230 197 213 216 202 215